Regional Weather Roundup
Issued by NWS

Home | Current Version | Previous Version | Graphics & Text | Print | Product List | Glossary On
Versions: 1 2 3 4 5 6 7 8 9 10 11 12 13 14 15 16 17 18 19 20 21 22 23 24 25 26 27 28 29 30 31 32 33 34 35 36 37 38 39 40 41 42 43 44 45 46 47 48 49 50
000
ASUS43 KMKX 291700
RWRWI

WISCONSIN REGIONAL WEATHER ROUNDUP
NATIONAL WEATHER SERVICE MILWAUKEE/SULLIVAN WI
1200 PM CDT FRI JUL 29 2016

NOTE: "FAIR" INDICATES FEW OR NO CLOUDS BELOW 12,000 FEET WITH NO
SIGNIFICANT WEATHER AND/OR OBSTRUCTIONS TO VISIBILITY.

WIZ001-002-006>008-014>016-023>028-291800-
NORTHWEST WISCONSIN

CITY           SKY/WX    TMP DP  RH WIND       PRES   REMARKS
SUPERIOR ARPT  SUNNY     70  55  59 E6        30.11S
ASHLAND        SUNNY     70  55  59 NE14      30.11S
HAYWARD        MOSUNNY   71  53  52 E10       30.10S
SIREN          NOT AVBL
CUMBERLAND     SUNNY     68  50  52 E9        30.10S
RICE LAKE      SUNNY     71  52  50 NE7       30.10S
CHETEK         SUNNY     70  55  57 NE3       30.08F
LADYSMITH      SUNNY     71  54  53 NE8       30.10F
EAU CLAIRE     NOT AVBL
MENOMONIE      MOSUNNY   74  49  40 NW6       30.07S
NEW RICHMOND   SUNNY     71  47  42 NE6       30.09S
OSCEOLA        SUNNY     71  50  47 NE6       30.12S
$$

WIZ003>005-009-010-017-018-291800-
NORTH CENTRAL WISCONSIN

CITY           SKY/WX    TMP DP  RH WIND       PRES   REMARKS
MANITOWISH WTR PTSUNNY   71  56  58 SE6       30.10S
ARBOR VITAE    SUNNY     72  57  59 SE5       30.10S
WOODRUFF       SUNNY     72  57  59 SE5       30.10S
RHINELANDER    CLOUDY    72  55  55 VRB5      30.09F
EAGLE RIVER    PTSUNNY   70  52  52 E3        30.10S
LAND O LAKES   SUNNY     70  53  54 E6        30.11S
PHILLIPS       MOSUNNY   70  54  57 E5        30.09S
TOMAHAWK       MOSUNNY   71  55  58 E6        30.09S
MEDFORD        SUNNY     70  57  61 NE5       30.08S
MERRILL        SUNNY     73  59  62 CALM      30.08S
$$

WIZ029-030-035-036-043>047-291800-
CENTRAL WISCONSIN

CITY           SKY/WX    TMP DP  RH WIND       PRES   REMARKS
WAUSAU         PTSUNNY   75  59  57 E13       30.05S
MOSINEE        PTSUNNY   73  63  68 E9        30.07S
MARSHFIELD     PTSUNNY   74  61  63 E7        30.05S
STEVENS POINT  CLOUDY    68  61  77 E8        30.06S
WAUPACA        CLOUDY    70  63  79 E8        30.05S
WAUTOMA        CLOUDY    66  62  87 NE7       30.05R
WISC RAPIDS    CLOUDY    71  61  70 E10       30.06R
CAMP DOUGLAS   NOT AVBL
$$

WIZ011>013-019>022-031-037>040-048>050-291800-
NORTHEAST WISCONSIN

CITY           SKY/WX    TMP DP  RH WIND       PRES   REMARKS
ANTIGO         SUNNY     72  59  63 E10       30.08S
SHAWANO        CLOUDY    72  63  73 E7        30.06S
OCONTO         CLOUDY    71  65  80 E5        30.05R
STURGEON BAY   MOSUNNY   74  61  63 E9        30.06S
GREEN BAY      CLOUDY    70  65  84 NE10      30.05R
MANITOWOC      CLOUDY    72  63  73 NE9       30.04S
APPLETON       CLOUDY    68  61  77 NE7       30.03S
CLINTONVILLE   CLOUDY    70  61  73 E6        30.05F
OSHKOSH        CLOUDY    69  64  84 NE8       30.03S
$$

WIZ032>034-041-042-053>061-291800-
SOUTHWEST WISCONSIN

CITY           SKY/WX    TMP DP  RH WIND       PRES   REMARKS
LA CROSSE      PTSUNNY   73  62  68 NW6       30.03R
SPARTA         CLOUDY    71  62  74 E5        30.04R
VIROQUA        CLOUDY    68  63  84 NE6       30.05R
BOSCOBEL       CLOUDY    68  62  81 E5        30.01S
PRAIRIE DU CHI CLOUDY    65  61  88 CALM      30.01S
PLATTEVILLE    CLOUDY    69  67  93 NE8       30.00S
$$

WIZ056-057-062-063-064-067-068-291800-
SOUTH CENTRAL WISCONSIN

CITY           SKY/WX    TMP DP  RH WIND       PRES   REMARKS
REEDSBURG      CLOUDY    66  64  94 NE8       30.02S
BARABOO/DELLS  CLOUDY    65  62  89 NE8       30.02S
LONE ROCK      NOT AVBL
MINERAL POINT  CLOUDY    68  64  88 NE6       30.01S
MADISON        CLOUDY    70  66  87 E8        29.99S
MIDDLETON      CLOUDY    69  67  90 E3        30.01R
WATERTOWN      CLOUDY    71  68  91 NE8       30.00R
MONROE         CLOUDY    70  64  83 N9        29.98F
JANESVILLE     CLOUDY    75  66  73 E9        29.97R
$$

WIZ051-052-058>065-066-070>072-291800-
SOUTHEAST WISCONSIN

CITY           SKY/WX    TMP DP  RH WIND       PRES   REMARKS
MILWAUKEE      CLOUDY    74  66  76 NE13      29.99S
WAUKESHA       CLOUDY    70  64  83 NE8       30.01S
MILWAUKEE/TIMM RAIN      66  63  88 NE7       30.01S
RACINE         PTSUNNY   74  65  73 E12       29.99F
BURLINGTON     CLOUDY    73  66  80 NE8       29.98S
KENOSHA        CLOUDY    73  66  78 E12       29.98S
FOND DU LAC    CLOUDY    70  65  84 NE9       30.03S
SHEBOYGAN      CLOUDY    71  63  75 NE16      30.03R
WEST BEND      CLOUDY    70  63  78 E9        30.02R
JUNEAU         CLOUDY    71  64  80 E10       30.02S
$$

LSZ147-162-291800-
LAKE SUPERIOR

STATION/POSITION TIME  TEMP    WIND        PRES    WAVE
                       AIR SEA DIR/SP/G            HT/PER
                 (UTC) (F)     (DEG/KT/KT) (MB)    (FT/S)
W MID LAKE BUOY  1550   62 61   50/  4/  6 1019.5S   0
DEVILS ISLAND    1600   64      70/  6/  7 1020.0F
SAXON HARBOR     1640   66      10/  5/  8 1019.3S
$$

LMZ867-665-643>646-291800-
LAKE MICHIGAN

STATION/POSITION TIME  TEMP    WIND        PRES    WAVE
                       AIR SEA DIR/SP/G            HT/PER
                 (UTC) (F)     (DEG/KT/KT) (MB)    (FT/S)
CHAMBERS ISLAND  1600   71      10/  9/ 11 1017.6S
N MID LAKE BUOY  1550   68 69   90/ 12/ 14 1017.4R   2/ 4
NORTHPORT PIER   1600   69      90/ 11/ 14 1017.9R
SISTER BAY       1621   76     130/ 11/ 13   N/A
ALGOMA LAKESHORE 1543           60/ 10/ 12   N/A
KEWAUNEE LAKESHO 1600   67      20/  3/  7 1016.8R
SHEBOYGAN LAKESH 1600   65      10/  9/ 10 1016.9R
PORT WASHINGTON  1600   71      40/  5/  8 1016.9
ATWATER BUOY     1600   66 63   70/  4/  8 1017.4R
MILWAUKEE LAKESH 1610   67      60/  8/  8   N/A
S MID LAKE BUOY  1550   70 74   80/ 16/ 17 1013.9R   4/ 5
KENOSHA   LAKESH 1600   72      80/  8/  9 1014.6R
$$

TC  - TEMPERATURE IN CELSIUS
VSB - VISIBILITY IN STATUTE MILES
WCI - WIND CHILL INDEX
HX  - HEAT INDEX





USA.gov is the U.S. government's official web portal to all federal, state and local government web resources and services.